Location: Cortos
(40.7190°N, 4.5893°W)
Time: 04:02:21
(UTC+00:00)

Thor Agena Rocket - Pass Details

Date: 05 July 2020
Orbit: 759 x 808 km, 99.0° (Epoch: 11 August)

Event Time Altitude Azimuth Distance (km) Brightness Sun altitude
Rises 22:25:53 0° 22° (NNE) 3,257 7.3 -21.0°
Reaches altitude 10° 22:28:23 10° 31° (NNE) 2,318 6.4 -21.2°
Maximum altitude 22:33:05 37° 98° (E) 1,169 4.1 -21.6°
Enters shadow 22:33:19 37° 104° (ESE) 1,172 4.1 -21.7°
